Time,TemperatureF,DewpointF,PressureIn,WindDirection,WindDirectionDegrees,WindSpeedMPH,WindSpeedGustMPH,Humidity,HourlyPrecipIn,Conditions,Clouds,dailyrainin,SoftwareType,DateUTC
2013-03-15 00:11:00,30.4,28.0,29.94,ENE,61,0.0,-999.0,89,-99.99,,,0.00,weatherlink.com 1.10,2013-03-15 04:11:00,
2013-03-15 00:26:00,30.3,28.0,29.94,ENE,60,0.0,-999.0,90,-99.99,,,0.00,weatherlink.com 1.10,2013-03-15 04:26:00,
2013-03-15 00:41:00,30.3,28.0,29.93,ENE,61,0.0,-999.0,90,-99.99,,,0.00,weatherlink.com 1.10,2013-03-15 04:41:00,
2013-03-15 00:56:00,30.5,28.0,29.93,ENE,61,0.0,-999.0,91,-99.99,,,0.00,weatherlink.com 1.10,2013-03-15 04:56:00,
2013-03-15 01:11:00,31.5,30.0,29.91,ENE,60,0.0,-999.0,92,-99.99,,,0.00,weatherlink.com 1.10,2013-03-15 05:11:00,
2013-03-15 01:26:00,32.2,30.0,29.91,ENE,61,1.0,-999.0,91,-99.99,,,0.00,weatherlink.com 1.10,2013-03-15 05:26:00,
2013-03-15 01:41:00,32.6,30.0,29.91,ENE,61,0.0,-999.0,91,-99.99,,,0.00,weatherlink.com 1.10,2013-03-15 05:41:00,
2013-03-15 01:56:00,33.0,30.0,29.91,South,187,0.0,-999.0,90,-99.99,,,0.00,weatherlink.com 1.10,2013-03-15 05:56:00,
2013-03-15 02:41:00,34.2,31.0,29.91,NNE,30,1.0,-999.0,87,-99.99,,,0.00,weatherlink.com 1.10,2013-03-15 06:41:00,
2013-03-15 02:56:00,34.2,31.0,29.92,NNE,17,1.0,-999.0,86,-99.99,,,0.00,weatherlink.com 1.10,2013-03-15 06:56:00,
2013-03-15 03:11:00,32.9,29.0,29.92,North,360,0.0,-999.0,85,-99.99,,,0.00,weatherlink.com 1.10,2013-03-15 07:11:00,
2013-03-15 03:26:00,31.2,27.0,29.94,North,360,2.0,-999.0,85,-99.99,,,0.00,weatherlink.com 1.10,2013-03-15 07:26:00,
2013-03-15 03:56:00,29.8,26.0,29.94,NE,40,1.0,-999.0,85,-99.99,,,0.00,weatherlink.com 1.10,2013-03-15 07:56:00,
2013-03-15 04:11:00,29.4,26.0,29.94,North,5,2.0,-999.0,85,-99.99,,,0.00,weatherlink.com 1.10,2013-03-15 08:11:00,
2013-03-15 04:25:00,29.0,25.0,29.94,North,360,1.0,-999.0,84,-99.99,,,0.00,weatherlink.com 1.10,2013-03-15 08:25:00,
2013-03-15 04:40:00,28.7,24.0,29.94,NE,45,0.0,-999.0,83,-99.99,,,0.00,weatherlink.com 1.10,2013-03-15 08:40:00,
2013-03-15 04:55:00,28.5,23.0,29.94,NNE,32,3.0,-999.0,81,-99.99,,,0.00,weatherlink.com 1.10,2013-03-15 08:55:00,
2013-03-15 05:10:00,28.3,23.0,29.94,North,10,3.0,-999.0,81,-99.99,,,0.00,weatherlink.com 1.10,2013-03-15 09:10:00,
2013-03-15 05:25:00,28.1,22.0,29.95,NNE,23,3.0,-999.0,79,-99.99,,,0.00,weatherlink.com 1.10,2013-03-15 09:25:00,
2013-03-15 05:40:00,27.9,22.0,29.95,North,355,0.0,-999.0,79,-99.99,,,0.00,weatherlink.com 1.10,2013-03-15 09:40:00,
2013-03-15 05:55:00,27.7,22.0,29.95,ENE,71,0.0,-999.0,79,-99.99,,,0.00,weatherlink.com 1.10,2013-03-15 09:55:00,
2013-03-15 06:10:00,27.4,21.0,29.95,NNE,22,2.0,-999.0,76,-99.99,,,0.00,weatherlink.com 1.10,2013-03-15 10:10:00,
2013-03-15 06:29:00,27.2,21.0,29.96,SSE,156,0.0,-999.0,77,-99.99,,,0.00,weatherlink.com 1.10,2013-03-15 10:29:00,
2013-03-15 06:40:00,27.0,20.0,29.96,WNW,296,0.0,-999.0,76,-99.99,,,0.00,weatherlink.com 1.10,2013-03-15 10:40:00,
2013-03-15 06:55:00,26.9,21.0,29.97,NE,38,0.0,-999.0,77,-99.99,,,0.00,weatherlink.com 1.10,2013-03-15 10:55:00,
2013-03-15 07:10:00,26.8,21.0,29.98,NNE,30,0.0,-999.0,77,-99.99,,,0.00,weatherlink.com 1.10,2013-03-15 11:10:00,
2013-03-15 07:25:00,26.7,20.0,29.98,NE,55,1.0,-999.0,77,-99.99,,,0.00,weatherlink.com 1.10,2013-03-15 11:25:00,
2013-03-15 07:40:00,26.6,20.0,29.98,ENE,61,1.0,-999.0,76,-99.99,,,0.00,weatherlink.com 1.10,2013-03-15 11:40:00,
2013-03-15 07:55:00,26.2,19.0,30.00,WNW,296,1.0,-999.0,75,-99.99,,,0.00,weatherlink.com 1.10,2013-03-15 11:55:00,
2013-03-15 08:10:00,26.0,19.0,30.00,North,360,0.0,-999.0,76,-99.99,,,0.00,weatherlink.com 1.10,2013-03-15 12:10:00,
2013-03-15 08:25:00,25.8,20.0,30.01,NE,42,0.0,-999.0,78,-99.99,,,0.00,weatherlink.com 1.10,2013-03-15 12:25:00,
2013-03-15 08:40:00,25.7,20.0,30.01,NNE,19,1.0,-999.0,79,-99.99,,,0.00,weatherlink.com 1.10,2013-03-15 12:40:00,
2013-03-15 08:55:00,25.6,20.0,30.02,NW,314,1.0,-999.0,79,-99.99,,,0.00,weatherlink.com 1.10,2013-03-15 12:55:00,
2013-03-15 09:10:00,25.3,19.0,30.02,North,355,1.0,-999.0,77,-99.99,,,0.00,weatherlink.com 1.10,2013-03-15 13:10:00,
2013-03-15 09:25:00,24.9,20.0,30.03,NW,322,2.0,-999.0,80,-99.99,,,0.00,weatherlink.com 1.10,2013-03-15 13:25:00,
2013-03-15 09:40:00,23.8,19.0,30.03,NNE,30,2.0,-999.0,83,-99.99,,,0.00,weatherlink.com 1.10,2013-03-15 13:40:00,
2013-03-15 09:55:00,23.7,19.0,30.03,NW,309,1.0,-999.0,83,-99.99,,,0.00,weatherlink.com 1.10,2013-03-15 13:55:00,
2013-03-15 10:10:00,23.5,19.0,30.03,WNW,286,3.0,-999.0,82,-99.99,,,0.00,weatherlink.com 1.10,2013-03-15 14:10:00,
2013-03-15 10:41:00,22.9,19.0,30.04,NE,51,1.0,-999.0,83,-99.99,,,0.00,weatherlink.com 1.10,2013-03-15 14:41:00,
2013-03-15 10:55:00,22.7,18.0,30.04,NNE,15,0.0,-999.0,83,-99.99,,,0.00,weatherlink.com 1.10,2013-03-15 14:55:00,
2013-03-15 11:10:00,22.6,18.0,30.05,North,360,3.0,-999.0,83,-99.99,,,0.00,weatherlink.com 1.10,2013-03-15 15:10:00,
2013-03-15 11:25:00,22.5,18.0,30.05,NNE,13,1.0,-999.0,81,-99.99,,,0.00,weatherlink.com 1.10,2013-03-15 15:25:00,
2013-03-15 11:40:00,22.7,18.0,30.05,NE,51,0.0,-999.0,81,-99.99,,,0.00,weatherlink.com 1.10,2013-03-15 15:40:00,
2013-03-15 11:55:00,22.4,17.0,30.05,ENE,78,0.0,-999.0,80,-99.99,,,0.00,weatherlink.com 1.10,2013-03-15 15:55:00,
2013-03-15 12:10:00,22.9,15.0,30.05,North,11,3.0,-999.0,73,-99.99,,,0.00,weatherlink.com 1.10,2013-03-15 16:10:00,
2013-03-15 12:25:00,23.2,16.0,30.05,ENE,65,4.0,-999.0,74,-99.99,,,0.00,weatherlink.com 1.10,2013-03-15 16:25:00,
2013-03-15 12:40:00,23.2,15.0,30.05,North,5,2.0,-999.0,72,-99.99,,,0.00,weatherlink.com 1.10,2013-03-15 16:40:00,
2013-03-15 12:56:00,22.6,16.0,30.05,North,349,1.0,-999.0,77,-99.99,,,0.00,weatherlink.com 1.10,2013-03-15 16:56:00,
2013-03-15 13:10:00,21.8,16.0,30.06,ENE,60,5.0,-999.0,78,-99.99,,,0.00,weatherlink.com 1.10,2013-03-15 17:10:00,
2013-03-15 13:25:00,22.2,15.0,30.06,North,360,2.0,-999.0,75,-99.99,,,0.00,weatherlink.com 1.10,2013-03-15 17:25:00,
2013-03-15 13:40:00,22.1,16.0,30.06,NNE,26,1.0,-999.0,76,-99.99,,,0.00,weatherlink.com 1.10,2013-03-15 17:40:00,
2013-03-15 13:55:00,21.7,16.0,30.07,NNE,32,9.0,-999.0,77,-99.99,,,0.00,weatherlink.com 1.10,2013-03-15 17:55:00,
2013-03-15 14:10:00,21.1,15.0,30.07,NE,35,2.0,-999.0,76,-99.99,,,0.00,weatherlink.com 1.10,2013-03-15 18:10:00,
2013-03-15 14:25:00,21.2,13.0,30.07,North,11,3.0,-999.0,72,-99.99,,,0.00,weatherlink.com 1.10,2013-03-15 18:25:00,
2013-03-15 14:40:00,21.7,14.0,30.07,NE,35,1.0,-999.0,73,-99.99,,,0.00,weatherlink.com 1.10,2013-03-15 18:40:00,
2013-03-15 14:55:00,20.9,14.0,30.07,ENE,59,5.0,-999.0,75,-99.99,,,0.00,weatherlink.com 1.10,2013-03-15 18:55:00,
2013-03-15 15:10:00,21.0,13.0,30.07,ENE,61,2.0,-999.0,72,-99.99,,,0.00,weatherlink.com 1.10,2013-03-15 19:10:00,
2013-03-15 15:25:00,21.3,13.0,30.06,NW,310,1.0,-999.0,69,-99.99,,,0.00,weatherlink.com 1.10,2013-03-15 19:25:00,
2013-03-15 15:40:00,20.6,13.0,30.06,NNE,12,2.0,-999.0,71,-99.99,,,0.00,weatherlink.com 1.10,2013-03-15 19:40:00,
2013-03-15 15:55:00,20.7,13.0,30.06,NE,44,1.0,-999.0,71,-99.99,,,0.00,weatherlink.com 1.10,2013-03-15 19:55:00,
2013-03-15 16:10:00,20.2,13.0,30.06,NE,40,5.0,-999.0,72,-99.99,,,0.00,weatherlink.com 1.10,2013-03-15 20:10:00,
2013-03-15 16:25:00,19.5,12.0,30.07,North,5,3.0,-999.0,72,-99.99,,,0.00,weatherlink.com 1.10,2013-03-15 20:25:00,
2013-03-15 16:40:00,19.3,12.0,30.07,NNE,19,2.0,-999.0,72,-99.99,,,0.00,weatherlink.com 1.10,2013-03-15 20:40:00,
2013-03-15 16:55:00,19.1,11.0,30.07,North,360,2.0,-999.0,71,-99.99,,,0.00,weatherlink.com 1.10,2013-03-15 20:55:00,
2013-03-15 17:10:00,19.3,11.0,30.06,North,5,0.0,-999.0,71,-99.99,,,0.00,weatherlink.com 1.10,2013-03-15 21:10:00,
2013-03-15 17:25:00,19.1,11.0,30.06,North,5,0.0,-999.0,70,-99.99,,,0.00,weatherlink.com 1.10,2013-03-15 21:25:00,
2013-03-15 17:40:00,18.6,10.0,30.06,NNE,15,1.0,-999.0,70,-99.99,,,0.00,weatherlink.com 1.10,2013-03-15 21:40:00,
2013-03-15 17:55:00,18.6,11.0,30.07,North,355,1.0,-999.0,71,-99.99,,,0.00,weatherlink.com 1.10,2013-03-15 21:55:00,
2013-03-15 18:10:00,18.7,10.0,30.06,SSE,163,1.0,-999.0,70,-99.99,,,0.00,weatherlink.com 1.10,2013-03-15 22:10:00,
2013-03-15 18:25:00,18.3,10.0,30.07,NW,313,0.0,-999.0,70,-99.99,,,0.00,weatherlink.com 1.10,2013-03-15 22:25:00,
2013-03-15 18:40:00,18.0,10.0,30.07,North,5,0.0,-999.0,72,-99.99,,,0.00,weatherlink.com 1.10,2013-03-15 22:40:00,
2013-03-15 18:55:00,17.9,11.0,30.07,North,5,1.0,-999.0,74,-99.99,,,0.00,weatherlink.com 1.10,2013-03-15 22:55:00,
2013-03-15 19:10:00,17.8,11.0,30.07,NE,40,2.0,-999.0,75,-99.99,,,0.00,weatherlink.com 1.10,2013-03-15 23:10:00,
2013-03-15 19:25:00,17.7,11.0,30.08,NNW,337,1.0,-999.0,75,-99.99,,,0.00,weatherlink.com 1.10,2013-03-15 23:25:00,
2013-03-15 19:40:00,17.6,11.0,30.07,NNE,25,0.0,-999.0,76,-99.99,,,0.00,weatherlink.com 1.10,2013-03-15 23:40:00,
2013-03-15 19:55:00,17.4,11.0,30.07,SE,136,0.0,-999.0,76,-99.99,,,0.00,weatherlink.com 1.10,2013-03-15 23:55:00,
2013-03-15 20:10:00,17.3,11.0,30.08,NE,37,1.0,-999.0,76,-99.99,,,0.00,weatherlink.com 1.10,2013-03-16 00:10:00,
2013-03-15 20:25:00,17.3,11.0,30.08,NNE,16,0.0,-999.0,76,-99.99,,,0.00,weatherlink.com 1.10,2013-03-16 00:25:00,
2013-03-15 20:40:00,17.4,11.0,30.08,North,5,0.0,-999.0,77,-99.99,,,0.00,weatherlink.com 1.10,2013-03-16 00:40:00,
2013-03-15 20:55:00,17.4,11.0,30.07,North,9,0.0,-999.0,76,-99.99,,,0.00,weatherlink.com 1.10,2013-03-16 00:55:00,
2013-03-15 21:10:00,17.5,11.0,30.08,NE,36,0.0,-999.0,77,-99.99,,,0.00,weatherlink.com 1.10,2013-03-16 01:10:00,
2013-03-15 21:25:00,17.5,11.0,30.07,ENE,68,0.0,-999.0,77,-99.99,,,0.00,weatherlink.com 1.10,2013-03-16 01:25:00,
2013-03-15 21:40:00,17.4,12.0,30.07,NE,56,1.0,-999.0,78,-99.99,,,0.00,weatherlink.com 1.10,2013-03-16 01:40:00,
2013-03-15 21:55:00,17.3,12.0,30.07,NE,34,0.0,-999.0,80,-99.99,,,0.00,weatherlink.com 1.10,2013-03-16 01:55:00,
2013-03-15 22:10:00,17.3,12.0,30.07,NE,34,0.0,-999.0,80,-99.99,,,0.00,weatherlink.com 1.10,2013-03-16 02:10:00,
2013-03-15 22:25:00,17.0,12.0,30.08,NE,34,0.0,-999.0,80,-99.99,,,0.00,weatherlink.com 1.10,2013-03-16 02:25:00,
2013-03-15 22:40:00,16.8,12.0,30.08,NE,34,0.0,-999.0,81,-99.99,,,0.00,weatherlink.com 1.10,2013-03-16 02:40:00,
2013-03-15 22:55:00,16.6,12.0,30.08,NE,34,0.0,-999.0,82,-99.99,,,0.00,weatherlink.com 1.10,2013-03-16 02:55:00,
2013-03-15 23:10:00,16.6,12.0,30.07,NE,34,0.0,-999.0,82,-99.99,,,0.00,weatherlink.com 1.10,2013-03-16 03:10:00,
2013-03-15 23:25:00,16.6,12.0,30.07,NE,34,0.0,-999.0,82,-99.99,,,0.00,weatherlink.com 1.10,2013-03-16 03:25:00,
2013-03-15 23:40:00,16.6,12.0,30.07,NE,34,0.0,-999.0,82,-99.99,,,0.00,weatherlink.com 1.10,2013-03-16 03:40:00,
2013-03-15 23:55:00,16.5,12.0,30.07,NE,51,0.0,-999.0,82,-99.99,,,0.00,weatherlink.com 1.10,2013-03-16 03:55:00,